Temp
-7 -7 -7 -7 -7 -7 -7 -7 -7 -7 -7 -7 -7 -7 -7 -7 -7 -7 -7 -7 -7 -7 -7 -7 -7 -7 -7 -7 -7 -7 -7 -7 -7 -7 -7 -7 -6 -6 -6 -6 -7 -7 -7
-7 -7 -7 -7 -7 -7 -7 -7 -7 -7 -7 -7 -7 -7 -8 -8 -8 -7 -7 -7 -7 -7 -7 -7 -7 -7 -7 -7 -7 -7 -7 -7 -7 -7 -7 -6 -6 -6 -6 -6 -7 -7 -8
-7 -7 -7 -7 -7 -7 -7 -7 -7 -7 -7 -7 -7 -8 -8 -8 -8 -8 -8 -7 -7 -7 -7 -7 -7 -7 -7 -7 -7 -7 -7 -7 -7 -7 -7 -7 -6 -6 -6 -7 -7 -7 -8
-8 -8 -7 -7 -7 -7 -7 -7 -7 -7 -7 -7 -7 -8 -8 -8 -8 -8 -8 -8 -7 -7 -7 -8 -7 -7 -7 -7 -7 -7 -7 -7 -7 -7 -7 -7 -7 -7 -7 -7 -8 -8 -8
-8 -8 -8 -7 -7 -7 -7 -7 -7 -8 -8 -8 -8 -8 -8 -8 -8 -8 -8 -8 -8 -8 -8 -8 -8 -8 -8 -8 -8 -7 -7 -7 -7 -7 -7 -7 -7 -7 -7 -7 -8 -8 -8
-8 -8 -8 -8 -8 -8 -8 -8 -8 -8 -8 -8 -8 -8 -8 -8 -8 -8 -8 -8 -8 -8 -8 -8 -8 -8 -8 -8 -8 -8 -8 -7 -7 -7 -7 -7 -7 -7 -7 -7 -7 -8 -8
-8 -8 -8 -8 -8 -8 -8 -8 -8 -8 -8 -8 -8 -8 -8 -8 -8 -8 -8 -8 -8 -8 -8 -8 -8 -8 -8 -8 -8 -8 -8 -8 -8 -7 -7 -7 -7 -7 -7 -7 -8 -8 -9
-9 -9 -8 -8 -8 -8 -8 -8 -8 -8 -8 -8 -9 -9 -9 -8 -9 -9 -9 -9 -9 -9 -8 -8 -8 -8 -8 -8 -8 -8 -8 -8 -8 -8 -7 -7 -7 -7 -8 -8 -8 -9 -9
-9 -9 -9 -9 -8 -8 -8 -8 -8 -8 -8 -9 -9 -9 -9 -9 -9 -9 -9 -9 -9 -9 -9 -9 -9 -9 -9 -8 -8 -8 -8 -8 -8 -8 -8 -8 -8 -8 -8 -8 -9 -9 -10
-9 -9 -9 -9 -9 -9 -9 -9 -9 -9 -9 -9 -9 -9 -9 -9 -9 -9 -9 -9 -9 -9 -9 -9 -9 -9 -9 -9 -9 -9 -8 -8 -8 -8 -8 -8 -8 -9 -9 -8 -9 -10 -10
-10 -9 -10 -9 -9 -9 -9 -9 -9 -9 -9 -9 -9 -10 -10 -10 -10 -10 -10 -10 -9 -9 -9 -9 -9 -9 -9 -9 -9 -9 -9 -9 -9 -9 -9 -8 -9 -9 -9 -9 -9 -10 -10
-10 -10 -10 -10 -10 -10 -10 -9 -9 -9 -9 -9 -9 -10 -10 -10 -10 -10 -10 -10 -10 -10 -10 -10 -10 -9 -9 -9 -9 -9 -9 -9 -9 -9 -9 -9 -9 -9 -9 -9 -10 -10 -10
-12 -11 -10 -10 -10 -10 -10 -10 -10 -10 -9 -10 -10 -10 -10 -10 -10 -11 -10 -10 -10 -10 -10 -10 -10 -10 -10 -10 -9 -9 -9 -9 -9 -9 -9 -9 -9 -9 -10 -10 -10 -10 -10
-11 -11 -11 -11 -11 -11 -11 -10 -10 -10 -10 -10 -10 -10 -10 -11 -11 -11 -11 -11 -11 -10 -10 -10 -10 -10 -10 -10 -10 -10 -10 -10 -10 -10 -10 -9 -10 -10 -10 -10 -10 -10 -10
-11 -12 -11 -12 -11 -11 -11 -10 -10 -10 -10 -10 -10 -10 -10 -11 -11 -11 -11 -11 -11 -11 -11 -11 -10 -10 -10 -10 -10 -10 -10 -10 -10 -10 -10 -10 -10 -10 -10 -10 -10 -11 -11
-12 -12 -12 -12 -11 -11 -11 -11 -11 -10 -10 -10 -10 -10 -10 -10 -11 -11 -12 -12 -11 -11 -11 -11 -11 -10 -10 -10 -10 -10 -10 -10 -10 -10 -10 -10 -10 -10 -10 -10 -11 -11 -11
-12 -12 -12 -12 -12 -11 -11 -11 -11 -11 -11 -10 -10 -10 -10 -10 -11 -11 -12 -12 -12 -11 -11 -11 -11 -11 -11 -11 -11 -11 -10 -10 -10 -10 -10 -10 -10 -11 -11 -11 -11 -11 -11
-12 -12 -12 -12 -12 -12 -12 -11 -11 -11 -11 -11 -11 -11 -10 -11 -11 -11 -12 -12 -12 -11 -11 -11 -11 -11 -11 -11 -11 -11 -11 -11 -11 -11 -11 -11 -11 -11 -11 -11 -11 -11 -11
-13 -12 -12 -12 -12 -12 -12 -12 -11 -11 -11 -11 -11 -11 -11 -11 -11 -12 -12 -12 -12 -12 -11 -11 -11 -11 -11 -11 -11 -11 -11 -11 -11 -11 -11 -11 -11 -11 -11 -11 -11 -12 -12
-13 -13 -13 -13 -13 -13 -12 -12 -12 -12 -11 -11 -11 -11 -11 -11 -11 -12 -12 -12 -12 -12 -12 -12 -11 -11 -11 -11 -11 -12 -11 -11 -11 -11 -11 -11 -11 -11 -11 -11 -12 -12 -12
-13 -13 -13 -13 -13 -13 -12 -12 -12 -12 -11 -11 -11 -11 -11 -11 -11 -11 -12 -12 -12 -12 -12 -12 -12 -12 -11 -11 -12 -12 -12 -12 -12 -12 -12 -12 -12 -11 -12 -12 -12 -12 -12
-13 -13 -13 -13 -13 -13 -13 -13 -12 -12 -12 -12 -12 -11 -11 -11 -11 -11 -12 -12 -12 -12 -12 -12 -12 -12 -12 -12 -12 -12 -12 -12 -12 -12 -12 -12 -12 -12 -12 -12 -12 -12 -12
-14 -14 -13 -13 -13 -13 -13 -13 -12 -12 -12 -12 -12 -11 -11 -11 -11 -11 -12 -12 -12 -12 -12 -12 -12 -12 -12 -12 -12 -12 -12 -12 -12 -12 -12 -12 -12 -12 -12 -12 -12 -12 -12
-14 -13 -13 -13 -13 -13 -13 -13 -13 -13 -12 -12 -12 -12 -11 -11 -11 -11 -12 -12 -12 -13 -13 -13 -13 -13 -13 -13 -13 -12 -12 -12 -12 -12 -12 -12 -12 -12 -12 -12 -13 -13 -13
-13 -13 -14 -14 -14 -13 -13 -13 -13 -12 -13 -12 -12 -12 -12 -12 -11 -12 -12 -13 -13 -13 -13 -13 -13 -13 -13 -13 -13 -12 -12 -12 -12 -12 -13 -13 -12 -12 -13 -13 -13 -13 -13
-14 -14 -13 -14 -13 -13 -13 -13 -13 -13 -12 -12 -12 -12 -12 -12 -12 -12 -13 -13 -13 -13 -13 -13 -13 -13 -13 -13 -13 -12 -12 -12 -13 -12 -12 -12 -13 -13 -13 -12 -13 -13 -13
Height
5891 5892 5893 5894 5895 5896 5897 5897 5898 5898 5898 5898 5898 5898 5898 5897 5897 5896 5896 5895 5893 5892 5891 5890 5889 5889 5889 5889 5888 5888 5887 5887 5886 5885 5884 5883 5881 5880 5878 5875 5873 5871 5868
5889 5890 5891 5893 5894 5895 5896 5897 5897 5897 5897 5898 5898 5898 5897 5896 5896 5896 5895 5895 5894 5893 5891 5890 5890 5889 5889 5888 5888 5888 5887 5886 5885 5884 5882 5881 5880 5877 5875 5872 5869 5866 5863
5887 5889 5890 5891 5893 5894 5894 5896 5896 5896 5897 5897 5897 5897 5897 5896 5896 5895 5894 5894 5893 5892 5891 5890 5890 5889 5888 5887 5886 5886 5886 5885 5883 5881 5880 5878 5876 5874 5871 5868 5865 5862 5859
5885 5887 5889 5890 5891 5892 5893 5894 5895 5895 5896 5896 5896 5897 5896 5896 5895 5894 5894 5893 5892 5891 5890 5890 5889 5888 5888 5886 5885 5885 5884 5883 5882 5880 5877 5875 5873 5870 5867 5864 5861 5858 5854
5883 5885 5887 5888 5890 5891 5892 5893 5894 5894 5895 5895 5895 5896 5895 5895 5894 5893 5893 5892 5891 5890 5889 5888 5888 5887 5886 5885 5884 5883 5882 5881 5879 5878 5875 5872 5869 5866 5863 5860 5857 5854 5850
5881 5882 5884 5886 5888 5889 5891 5891 5892 5893 5894 5894 5895 5895 5894 5894 5893 5892 5891 5891 5890 5889 5888 5886 5885 5885 5884 5882 5882 5881 5880 5878 5877 5875 5872 5869 5866 5864 5861 5858 5854 5851 5848
5878 5880 5882 5884 5886 5888 5889 5890 5890 5891 5892 5893 5893 5894 5893 5893 5892 5891 5890 5890 5889 5888 5886 5885 5884 5883 5882 5880 5879 5879 5877 5876 5874 5872 5869 5866 5863 5860 5857 5854 5851 5848 5845
5874 5876 5879 5882 5884 5885 5887 5887 5889 5889 5890 5891 5891 5891 5891 5890 5890 5889 5888 5888 5887 5886 5885 5884 5883 5881 5880 5878 5877 5876 5874 5873 5871 5869 5866 5863 5860 5857 5854 5851 5848 5845 5842
5871 5872 5876 5879 5881 5883 5884 5885 5887 5888 5888 5889 5889 5889 5888 5887 5887 5887 5886 5886 5885 5884 5883 5882 5881 5879 5877 5876 5874 5873 5872 5870 5868 5866 5863 5860 5857 5854 5851 5848 5845 5843 5840
5867 5869 5872 5876 5878 5880 5881 5883 5884 5885 5886 5886 5886 5886 5885 5885 5884 5884 5884 5883 5883 5882 5881 5880 5879 5877 5875 5873 5872 5870 5868 5866 5864 5863 5860 5858 5855 5852 5848 5845 5842 5840 5837
5864 5866 5868 5872 5875 5877 5878 5880 5881 5882 5882 5883 5882 5882 5882 5881 5881 5881 5880 5880 5879 5879 5878 5877 5876 5874 5872 5870 5869 5867 5865 5863 5861 5859 5857 5854 5852 5849 5845 5842 5840 5837 5834
5860 5861 5864 5868 5870 5872 5875 5877 5878 5878 5879 5879 5878 5878 5878 5878 5878 5877 5876 5876 5875 5875 5874 5873 5872 5871 5869 5868 5866 5864 5862 5859 5857 5855 5853 5850 5848 5845 5842 5839 5836 5834 5831
5854 5858 5859 5863 5865 5868 5870 5873 5874 5874 5875 5875 5875 5874 5874 5874 5874 5873 5872 5872 5871 5871 5870 5869 5868 5867 5866 5864 5863 5861 5858 5856 5853 5851 5848 5846 5843 5841 5838 5835 5831 5829 5827
5849 5853 5856 5858 5861 5864 5867 5869 5870 5870 5871 5871 5871 5870 5870 5869 5869 5869 5868 5867 5867 5866 5866 5864 5864 5862 5861 5859 5858 5856 5854 5852 5849 5847 5844 5841 5839 5836 5833 5830 5827 5824 5821
5841 5847 5850 5853 5857 5860 5862 5864 5865 5866 5867 5867 5867 5866 5866 5865 5864 5864 5863 5862 5861 5861 5860 5859 5858 5857 5855 5854 5852 5850 5848 5846 5844 5842 5839 5836 5834 5831 5828 5825 5822 5818 5815
5836 5840 5845 5849 5851 5854 5857 5859 5860 5862 5862 5862 5862 5862 5861 5860 5859 5857 5856 5856 5856 5856 5855 5854 5853 5852 5850 5848 5846 5844 5842 5840 5838 5836 5833 5830 5828 5825 5822 5819 5815 5812 5809
5828 5834 5837 5842 5846 5848 5851 5853 5855 5856 5857 5857 5857 5857 5856 5855 5854 5852 5851 5851 5850 5850 5849 5849 5847 5846 5844 5842 5840 5838 5836 5834 5831 5829 5826 5823 5820 5817 5814 5811 5808 5804 5801
5821 5826 5831 5835 5839 5842 5845 5847 5849 5850 5851 5852 5852 5852 5851 5849 5848 5847 5846 5845 5845 5845 5844 5843 5842 5840 5838 5835 5833 5831 5829 5826 5823 5821 5819 5816 5813 5809 5806 5803 5800 5796 5792
5813 5818 5824 5828 5832 5835 5839 5841 5843 5844 5846 5847 5847 5846 5845 5844 5842 5841 5840 5839 5839 5839 5838 5836 5835 5833 5831 5829 5826 5824 5821 5818 5816 5813 5810 5807 5804 5801 5798 5795 5791 5787 5783
5806 5811 5816 5821 5825 5829 5832 5834 5836 5838 5839 5840 5841 5841 5840 5838 5836 5835 5833 5832 5832 5831 5830 5829 5827 5825 5823 5821 5819 5816 5813 5810 5807 5804 5801 5798 5795 5792 5789 5784 5780 5776 5773
5798 5803 5809 5814 5818 5822 5825 5828 5831 5832 5833 5834 5834 5834 5833 5831 5829 5828 5827 5825 5824 5823 5822 5821 5819 5817 5816 5813 5810 5808 5804 5801 5798 5795 5792 5789 5785 5782 5778 5774 5770 5767 5764
5789 5795 5800 5805 5809 5813 5817 5820 5823 5825 5826 5827 5828 5827 5826 5824 5822 5821 5819 5818 5817 5815 5814 5812 5811 5809 5807 5804 5802 5799 5796 5793 5789 5785 5782 5778 5775 5771 5768 5764 5761 5757 5754
5779 5786 5791 5795 5800 5805 5808 5812 5814 5817 5818 5819 5820 5820 5818 5816 5814 5812 5810 5809 5808 5806 5805 5803 5802 5800 5798 5796 5793 5790 5786 5783 5779 5775 5772 5768 5764 5760 5757 5754 5751 5748 5745
5771 5777 5782 5787 5793 5797 5800 5803 5806 5808 5809 5811 5811 5811 5809 5807 5805 5803 5802 5800 5799 5797 5796 5795 5793 5791 5788 5785 5782 5779 5775 5772 5769 5766 5761 5756 5752 5749 5746 5742 5738 5736 5733
5764 5766 5773 5780 5787 5789 5792 5794 5799 5800 5802 5803 5803 5802 5800 5798 5796 5794 5792 5791 5790 5789 5787 5785 5783 5781 5777 5775 5772 5768 5765 5761 5757 5754 5750 5744 5740 5736 5733 5729 5726 5723 5720
5757 5759 5765 5773 5778 5781 5785 5786 5789 5791 5793 5794 5793 5792 5791 5789 5786 5784 5783 5783 5781 5779 5777 5775 5772 5770 5766 5763 5759 5756 5752 5748 5744 5741 5738 5733 5728 5722 5719 5716 5712 5709 5705
Wind_Speed
11 9 6 5 4 4 4 5 5 6 6 4 3 4 6 8 11 12 14 16 18 16 14 12 10 10 10 9 9 10 12 13 15 17 19 21 23 25 27 29 30 30 30
11 9 8 6 4 4 4 4 4 5 5 5 4 6 8 10 11 12 13 15 16 16 13 11 10 9 9 9 9 9 11 13 16 18 21 22 24 27 29 31 32 33 32
12 9 8 7 6 5 4 4 4 5 5 6 6 7 9 10 11 12 13 14 14 15 13 10 9 10 9 8 7 9 11 14 17 20 22 24 27 28 28 30 31 31 33
13 11 9 8 7 5 4 4 4 4 5 6 7 9 9 10 12 12 12 13 14 14 13 10 11 11 9 9 9 10 12 15 17 20 24 25 28 28 28 30 32 34 36
14 12 11 9 7 6 6 6 5 5 6 8 10 10 11 13 12 13 13 13 13 12 12 11 11 12 11 11 11 12 14 15 17 20 23 25 27 27 28 32 35 35 36
16 13 12 9 8 7 7 7 7 7 6 8 9 12 13 14 14 13 13 12 12 11 12 12 12 13 13 12 13 13 14 16 18 21 23 25 27 27 28 31 33 35 35
18 14 12 11 9 10 9 6 4 3 5 8 10 10 12 14 13 13 11 11 10 10 11 12 12 13 13 13 14 14 16 18 20 22 24 26 26 27 29 30 33 36 34
20 15 13 12 12 13 10 4 4 6 7 9 12 15 17 16 14 12 10 11 10 9 10 12 14 14 14 15 16 16 17 19 20 22 23 25 26 27 29 31 32 33 34
21 18 14 13 14 16 12 5 6 7 9 12 15 19 18 17 16 13 11 10 12 10 12 12 14 15 15 16 16 16 18 20 22 23 24 25 26 27 28 30 30 31 31
22 19 16 15 15 16 13 10 10 9 12 13 17 18 18 18 17 16 14 12 14 13 13 13 14 16 16 17 17 18 18 20 22 23 25 26 27 28 28 29 30 28 27
26 22 19 18 17 14 14 15 15 13 14 17 19 18 18 19 20 18 17 15 15 16 16 15 16 16 17 18 19 20 20 21 23 24 25 27 28 29 29 29 30 28 26
28 26 26 23 20 21 17 18 18 15 17 20 17 17 17 17 19 20 19 18 18 19 20 19 20 19 20 20 20 21 21 22 23 25 27 28 29 31 30 29 30 29 27
34 29 30 37 25 23 24 21 19 18 21 20 19 19 19 19 20 22 22 20 20 23 23 21 22 21 21 22 23 23 22 23 24 26 28 30 31 31 32 31 31 29 29
35 36 28 27 29 26 22 24 21 22 23 21 21 20 20 20 23 23 25 23 25 25 24 23 24 23 24 25 26 25 26 26 26 26 28 31 33 34 33 33 32 32 31
36 35 36 35 29 26 26 26 26 27 25 23 23 22 23 22 23 27 28 30 28 29 25 25 26 25 26 28 28 28 28 29 30 29 29 31 33 34 35 35 33 31 32
40 35 36 34 32 33 31 31 32 30 27 26 25 25 24 23 24 26 27 28 28 27 27 28 28 29 29 30 31 30 31 32 32 32 32 33 35 36 36 35 35 33 33
45 41 40 35 33 31 31 32 31 31 29 29 28 27 26 25 25 24 26 27 26 27 30 31 30 30 31 32 33 33 34 34 35 34 35 36 37 38 39 39 38 36 36
48 47 41 41 35 33 32 33 34 35 33 33 32 29 27 26 27 26 27 29 29 29 31 33 32 32 33 34 35 37 37 37 37 38 37 39 41 41 42 41 41 40 41
51 48 46 43 41 37 34 37 37 38 36 35 35 32 29 28 28 27 29 30 30 31 32 34 34 34 35 37 37 39 39 39 40 40 40 42 43 43 43 42 43 43 44
55 52 48 45 42 40 41 40 41 39 39 37 38 34 31 30 30 30 29 31 32 34 34 36 37 38 40 42 44 43 42 41 42 42 43 45 46 46 46 46 44 42 40
58 55 50 48 45 44 44 42 42 40 44 42 40 36 34 33 33 32 31 31 33 37 39 39 39 40 43 45 45 45 44 43 44 44 46 48 48 48 47 43 39 38 40
57 57 54 53 51 50 50 51 48 48 48 44 42 38 38 36 36 35 35 36 36 37 40 42 45 44 46 46 46 46 46 46 46 47 50 51 50 47 42 40 40 41 40
55 58 59 58 54 53 54 54 50 49 43 44 44 41 40 39 38 38 36 37 40 42 43 43 44 46 47 47 47 48 47 46 48 50 52 50 46 43 44 45 45 44 43
54 57 58 61 56 52 53 53 50 47 43 44 36 43 41 40 40 38 38 38 40 40 41 43 45 46 47 49 50 49 49 52 53 52 49 47 48 48 48 48 48 48 48
53 49 60 59 54 53 55 52 49 43 43 42 43 43 42 42 40 39 38 38 40 41 43 45 46 47 49 51 50 52 54 55 54 48 49 50 49 49 49 49 48 47 47
35 30 37 36 39 41 48 50 48 27 30 37 39 41 43 43 42 39 39 40 41 43 46 47 49 50 50 51 54 56 56 53 51 51 50 49 50 53 53 53 52 51 50
Wind_Direction
179 175 167 155 119 96 95 86 90 90 89 81 60 34 24 17 12 11 11 14 16 14 17 18 29 38 40 41 41 37 30 21 11 3 357 352 346 342 337 333 327 320 314
185 183 178 178 157 140 120 103 92 82 70 54 29 18 13 10 7 4 6 9 12 13 11 16 18 18 19 20 21 20 16 5 358 354 354 350 346 342 335 330 325 323 320
192 188 188 186 177 170 143 122 96 76 58 39 17 10 8 4 1 1 3 7 9 10 7 8 4 357 358 357 0 358 360 358 353 350 348 344 342 338 333 330 331 332 328
194 194 192 188 186 183 158 129 106 72 51 32 13 2 358 358 356 356 358 1 3 3 357 351 345 348 348 341 339 345 348 351 349 346 342 342 339 340 340 341 343 340 334
197 195 196 196 195 188 162 131 102 73 47 28 15 359 350 348 348 346 350 353 354 355 346 341 339 342 339 333 331 335 339 344 345 342 342 340 341 345 346 343 344 343 337
198 200 203 203 200 191 163 122 94 63 39 24 6 352 343 337 334 337 342 347 353 355 349 344 340 337 334 328 325 326 331 337 341 341 342 344 343 345 346 344 343 342 339
203 204 209 211 205 190 176 143 84 70 348 344 347 327 323 324 315 319 331 335 343 351 348 346 343 338 329 322 317 317 323 330 334 338 341 344 343 343 344 344 343 342 340
200 194 208 211 210 200 193 201 312 332 332 321 326 322 316 302 301 305 313 318 323 335 339 339 337 334 325 319 314 316 317 323 329 333 337 340 340 342 341 342 340 338 338
201 194 199 213 216 210 208 234 303 300 307 305 312 318 300 295 294 295 296 303 306 318 324 332 337 334 330 320 316 315 319 320 324 328 333 336 338 338 339 338 335 333 336
207 200 198 214 221 220 230 271 288 281 293 298 310 307 297 293 290 285 283 286 295 303 310 320 330 335 335 328 321 318 319 322 324 324 328 330 332 335 338 335 332 329 330
209 207 208 218 222 232 250 268 275 269 283 300 309 301 291 288 286 280 277 281 288 291 298 307 314 321 328 331 326 320 318 322 323 323 325 326 327 329 332 333 331 325 323
222 209 217 219 226 235 248 258 254 265 283 300 304 299 286 288 283 281 275 278 284 292 291 297 301 308 313 318 323 326 325 324 324 324 325 325 324 324 326 328 329 325 319
225 223 216 228 234 244 240 249 248 263 283 292 296 300 286 281 279 283 274 274 281 288 290 299 300 304 307 310 310 316 323 326 326 325 324 323 322 321 321 322 324 325 320
220 228 225 226 235 235 241 244 253 269 281 284 293 294 286 280 280 281 274 274 275 279 287 294 298 302 306 307 308 312 314 316 321 325 325 324 321 320 319 319 320 320 319
228 221 228 229 228 234 235 245 260 272 276 281 290 292 290 282 277 275 274 274 274 280 285 292 297 302 304 305 307 309 311 311 313 318 321 321 320 319 318 317 316 315 314
227 222 225 226 230 238 239 250 260 268 273 277 286 291 291 284 280 287 275 271 275 279 283 289 296 300 302 304 306 308 308 310 311 311 315 318 318 318 318 316 316 314 310
225 228 226 228 231 234 240 245 257 265 270 273 281 287 287 286 283 289 278 269 273 281 278 287 293 298 301 304 306 307 306 308 309 312 311 313 315 317 317 317 315 312 309
225 228 232 233 230 235 238 246 256 263 268 272 277 281 284 286 280 282 279 275 270 278 280 284 291 296 300 303 304 305 305 307 311 311 308 310 313 317 317 316 314 311 306
224 227 231 236 239 234 240 247 255 258 264 270 274 278 282 284 282 280 276 273 273 279 282 286 290 295 301 301 302 305 307 310 308 307 306 309 313 315 315 313 310 307 305
226 228 230 235 240 246 245 250 252 254 263 267 271 277 283 284 282 277 282 271 272 276 284 290 289 292 295 298 301 305 307 307 306 305 306 308 311 312 311 309 307 305 304
226 227 229 232 237 243 251 253 254 253 264 268 269 277 280 282 282 279 275 274 272 273 276 286 287 286 289 293 298 304 306 306 304 306 306 307 309 309 308 306 305 306 305
227 229 231 233 235 241 246 249 253 257 261 264 268 276 279 280 284 281 275 271 272 274 277 280 282 285 287 293 297 300 300 303 305 306 307 308 308 306 305 304 303 303 302
223 225 230 234 235 239 245 249 249 249 255 260 266 275 276 278 282 282 278 274 271 272 276 279 283 287 290 295 298 299 301 302 304 306 306 305 303 301 301 301 301 299 298
232 231 229 233 236 238 243 242 240 244 256 268 265 276 275 277 280 282 279 275 274 275 279 282 285 289 295 296 298 300 301 303 304 303 300 298 299 300 300 298 297 294 293
220 225 229 229 235 239 245 238 239 247 255 267 264 270 275 279 281 279 277 276 278 280 282 285 291 294 295 298 299 301 302 302 300 297 297 299 300 299 300 299 297 294 291
234 231 236 233 235 238 250 239 241 247 260 264 269 272 277 280 279 278 279 280 282 285 288 291 292 295 297 298 299 299 298 296 295 296 296 297 299 299 299 298 297 295 292